N1152H ENBR-ENAL

Flight info

Callsign N1152H
Flight time 1h 4m
Altitude 19000
Route OLDAS DCT TUMIM
Aircraft C414/L-SBDFGRY/S

Departure

Time 2026-04-25 20:14
Airport Bergen Airport, Flesland (ENBR)

Arrival

Time 2026-04-25 21:18
Airport Ålesund Airport (ENAL)
Time Latitude Longitude Altitude Speed Heading
2026-04-25 19:53 60.29963 5.22766 143 ft 0 kts 240°
2026-04-25 20:03 60.29961 5.22759 142 ft 7 kts 238°
2026-04-25 20:03 60.29897 5.22675 139 ft 12 kts 199°
2026-04-25 20:04 60.29832 5.22611 142 ft 8 kts 213°
2026-04-25 20:04 60.29786 5.22525 143 ft 12 kts 236°
2026-04-25 20:04 60.29753 5.22356 142 ft 13 kts 261°
2026-04-25 20:04 60.29738 5.22183 142 ft 11 kts 261°
2026-04-25 20:05 60.29731 5.22059 142 ft 7 kts 263°
2026-04-25 20:05 60.29730 5.22038 143 ft 3 kts 263°
2026-04-25 20:05 60.29729 5.22004 143 ft 0 kts 262°
2026-04-25 20:05 60.29728 5.22004 144 ft 0 kts 262°
2026-04-25 20:06 60.29723 5.21994 144 ft 1 kts 180°
2026-04-25 20:06 60.29686 5.22020 145 ft 7 kts 167°
2026-04-25 20:06 60.29631 5.22037 147 ft 8 kts 169°
2026-04-25 20:06 60.29574 5.22059 149 ft 9 kts 169°
2026-04-25 20:07 60.29507 5.22080 151 ft 15 kts 169°
2026-04-25 20:07 60.29414 5.22111 154 ft 12 kts 172°
2026-04-25 20:07 60.29349 5.22134 157 ft 7 kts 169°
2026-04-25 20:07 60.29285 5.22156 160 ft 15 kts 172°
2026-04-25 20:08 60.29170 5.22199 166 ft 17 kts 170°
2026-04-25 20:08 60.29067 5.22235 170 ft 13 kts 169°
2026-04-25 20:08 60.28974 5.22263 167 ft 14 kts 172°
2026-04-25 20:08 60.28878 5.22299 166 ft 14 kts 171°
2026-04-25 20:09 60.28786 5.22328 165 ft 13 kts 167°
2026-04-25 20:09 60.28695 5.22355 163 ft 14 kts 172°
2026-04-25 20:09 60.28601 5.22384 161 ft 14 kts 177°
2026-04-25 20:09 60.28505 5.22417 158 ft 14 kts 171°
2026-04-25 20:10 60.28405 5.22450 156 ft 15 kts 169°
2026-04-25 20:10 60.28304 5.22451 152 ft 11 kts 217°
2026-04-25 20:10 60.28293 5.22391 151 ft 0 kts 264°
2026-04-25 20:12 60.28294 5.22230 149 ft 15 kts 283°
2026-04-25 20:12 60.28327 5.22156 150 ft 0 kts 354°
2026-04-25 20:13 60.28328 5.22156 150 ft 5 kts 354°
2026-04-25 20:13 60.28573 5.22076 154 ft 62 kts 350°
2026-04-25 20:13 60.29054 5.21925 288 ft 78 kts 351°
2026-04-25 20:14 60.29641 5.21770 445 ft 89 kts 352°
2026-04-25 20:14 60.30294 5.21623 581 ft 103 kts 352°
2026-04-25 20:14 60.31015 5.21479 912 ft 104 kts 353°
2026-04-25 20:14 60.31702 5.21331 1348 ft 96 kts 352°
2026-04-25 20:15 60.32376 5.21172 1596 ft 99 kts 353°
2026-04-25 20:15 60.33079 5.20991 1800 ft 103 kts 353°
2026-04-25 20:15 60.33784 5.20796 2021 ft 101 kts 352°
2026-04-25 20:15 60.34342 5.19997 2255 ft 109 kts 306°
2026-04-25 20:16 60.34756 5.18722 2502 ft 109 kts 312°
2026-04-25 20:16 60.35182 5.17467 2733 ft 110 kts 312°
2026-04-25 20:16 60.35615 5.16188 2986 ft 110 kts 312°
2026-04-25 20:16 60.36051 5.14903 3232 ft 111 kts 312°
2026-04-25 20:17 60.36491 5.13612 3479 ft 111 kts 312°
2026-04-25 20:17 60.36929 5.12327 3713 ft 111 kts 312°
2026-04-25 20:17 60.37366 5.11035 3978 ft 112 kts 312°
2026-04-25 20:17 60.37802 5.09734 4204 ft 112 kts 312°
2026-04-25 20:18 60.38238 5.08431 4463 ft 112 kts 312°
2026-04-25 20:18 60.38672 5.07133 4721 ft 111 kts 312°
2026-04-25 20:18 60.39111 5.05834 4958 ft 112 kts 312°
2026-04-25 20:18 60.39673 5.04836 5182 ft 107 kts 344°
2026-04-25 20:19 60.40406 5.04791 5418 ft 107 kts
2026-04-25 20:19 60.41140 5.05015 5644 ft 107 kts
2026-04-25 20:19 60.41879 5.05222 5870 ft 107 kts
2026-04-25 20:19 60.42621 5.05406 6091 ft 108 kts
2026-04-25 20:20 60.43361 5.05568 6325 ft 107 kts
2026-04-25 20:20 60.44100 5.05714 6562 ft 106 kts
2026-04-25 20:20 60.44834 5.05853 6784 ft 106 kts
2026-04-25 20:20 60.45565 5.05988 7001 ft 105 kts
2026-04-25 20:21 60.46296 5.06119 7215 ft 105 kts
2026-04-25 20:21 60.47010 5.06243 7433 ft 104 kts
2026-04-25 20:21 60.47732 5.06379 7644 ft 104 kts
2026-04-25 20:21 60.48455 5.06509 7854 ft 104 kts
2026-04-25 20:22 60.49178 5.06634 8084 ft 104 kts
2026-04-25 20:22 60.49420 5.06676 8155 ft 104 kts
2026-04-25 20:22 60.50609 5.06887 8516 ft 103 kts
2026-04-25 20:22 60.51321 5.07015 8723 ft 103 kts
2026-04-25 20:23 60.52036 5.07143 8949 ft 103 kts
2026-04-25 20:23 60.52746 5.07269 9170 ft 102 kts 360°
2026-04-25 20:23 60.53453 5.07395 9383 ft 102 kts 359°
2026-04-25 20:23 60.54163 5.07522 9586 ft 102 kts 359°
2026-04-25 20:24 60.54872 5.07649 9809 ft 102 kts 359°
2026-04-25 20:24 60.55579 5.07776 10025 ft 102 kts 359°
2026-04-25 20:24 60.56286 5.07903 10214 ft 102 kts 359°
2026-04-25 20:24 60.56990 5.08028 10392 ft 101 kts 359°
2026-04-25 20:25 60.57694 5.08154 10580 ft 102 kts 359°
2026-04-25 20:25 60.58399 5.08280 10746 ft 102 kts 358°
2026-04-25 20:25 60.59105 5.08407 10922 ft 102 kts 358°
2026-04-25 20:25 60.59800 5.08532 11220 ft 101 kts 358°
2026-04-25 20:26 60.60496 5.08657 11626 ft 100 kts 358°
2026-04-25 20:26 60.61188 5.08779 12008 ft 100 kts 357°
2026-04-25 20:26 60.61884 5.08905 12388 ft 100 kts 357°
2026-04-25 20:26 60.62577 5.09030 12789 ft 100 kts 356°
2026-04-25 20:27 60.63265 5.09154 13167 ft 99 kts 356°
2026-04-25 20:27 60.63954 5.09278 13577 ft 99 kts 356°
2026-04-25 20:27 60.64645 5.09401 13966 ft 99 kts 356°
2026-04-25 20:27 60.65333 5.09524 14314 ft 99 kts 355°
2026-04-25 20:28 60.66019 5.09649 14664 ft 99 kts 355°
2026-04-25 20:28 60.66703 5.09773 15004 ft 98 kts 355°
2026-04-25 20:28 60.67384 5.09895 15353 ft 98 kts 355°
2026-04-25 20:28 60.68063 5.10018 15707 ft 98 kts 355°
2026-04-25 20:29 60.68738 5.10139 16047 ft 98 kts 354°
2026-04-25 20:29 60.69415 5.10261 16387 ft 97 kts 354°
2026-04-25 20:29 60.70090 5.10383 16734 ft 97 kts 354°
2026-04-25 20:29 60.70765 5.10505 17077 ft 97 kts 354°
2026-04-25 20:30 60.71436 5.10626 17419 ft 97 kts 354°
2026-04-25 20:30 60.72106 5.10748 17758 ft 97 kts 354°
2026-04-25 20:30 60.72777 5.10869 18089 ft 97 kts 354°
2026-04-25 20:30 60.73448 5.10990 18421 ft 97 kts 353°
2026-04-25 20:31 60.74119 5.11108 18709 ft 97 kts 353°
2026-04-25 20:31 60.74792 5.11235 18998 ft 97 kts 353°
2026-04-25 20:31 60.75487 5.11352 19162 ft 107 kts 353°
2026-04-25 20:31 60.76289 5.11470 19191 ft 123 kts 354°
2026-04-25 20:32 60.77181 5.11618 19197 ft 137 kts 355°
2026-04-25 20:32 60.77839 5.11736 19198 ft 144 kts 356°
2026-04-25 20:32 60.79211 5.11993 19198 ft 154 kts 356°
2026-04-25 20:32 60.80301 5.12200 19199 ft 160 kts 356°
2026-04-25 20:33 60.81055 5.12343 19200 ft 162 kts 356°
2026-04-25 20:33 60.82560 5.12626 19202 ft 166 kts 357°
2026-04-25 20:33 60.83716 5.12841 19202 ft 167 kts 357°
2026-04-25 20:33 60.84486 5.12983 19203 ft 168 kts 356°
2026-04-25 20:34 60.86046 5.13273 19208 ft 169 kts 357°
2026-04-25 20:34 60.87218 5.13488 19211 ft 169 kts 357°
2026-04-25 20:34 60.88401 5.13703 19211 ft 171 kts 357°
2026-04-25 20:34 60.89590 5.13920 19208 ft 172 kts 357°
2026-04-25 20:35 60.90791 5.14140 19206 ft 174 kts 357°
2026-04-25 20:35 60.91991 5.14360 19208 ft 173 kts 357°
2026-04-25 20:35 60.93194 5.14582 19205 ft 174 kts 357°
2026-04-25 20:35 60.94399 5.14804 19207 ft 174 kts 357°
2026-04-25 20:36 60.95605 5.15026 19202 ft 173 kts 357°
2026-04-25 20:36 60.96806 5.15246 19220 ft 174 kts 357°
2026-04-25 20:36 60.98008 5.15467 19185 ft 172 kts 357°
2026-04-25 20:36 60.99177 5.15684 19198 ft 170 kts 357°
2026-04-25 20:37 61.00351 5.15906 19203 ft 169 kts 358°
2026-04-25 20:37 61.01519 5.16145 19202 ft 168 kts 356°
2026-04-25 20:37 61.02680 5.16334 19211 ft 168 kts 356°
2026-04-25 20:37 61.03844 5.16534 19210 ft 168 kts 356°
2026-04-25 20:38 61.05010 5.16745 19219 ft 169 kts 357°
2026-04-25 20:38 61.06187 5.16963 19221 ft 170 kts 357°
2026-04-25 20:38 61.07371 5.17511 19217 ft 182 kts 11°
2026-04-25 20:38 61.08490 5.18881 19214 ft 188 kts 17°
2026-04-25 20:39 61.09616 5.20206 19213 ft 185 kts 15°
2026-04-25 20:39 61.10748 5.21451 19211 ft 184 kts 14°
2026-04-25 20:39 61.11877 5.22678 19215 ft 183 kts 14°
2026-04-25 20:39 61.12258 5.23093 19216 ft 184 kts 14°
2026-04-25 20:40 61.14133 5.25157 19213 ft 183 kts 14°
2026-04-25 20:40 61.15254 5.26409 19211 ft 183 kts 15°
2026-04-25 20:40 61.16378 5.27670 19214 ft 184 kts 14°
2026-04-25 20:40 61.17509 5.28941 19210 ft 185 kts 15°
2026-04-25 20:41 61.18638 5.30218 19205 ft 185 kts 15°
2026-04-25 20:41 61.19760 5.31494 19194 ft 183 kts 15°
2026-04-25 20:41 61.20872 5.32761 19211 ft 182 kts 15°
2026-04-25 20:41 61.21987 5.34026 19204 ft 183 kts 15°
2026-04-25 20:42 61.23088 5.35277 19199 ft 182 kts 15°
2026-04-25 20:42 61.24193 5.36540 19202 ft 181 kts 15°
2026-04-25 20:42 61.25298 5.37793 19205 ft 182 kts 15°
2026-04-25 20:42 61.26411 5.39056 19203 ft 183 kts 15°
2026-04-25 20:43 61.27528 5.40330 19198 ft 183 kts 15°
2026-04-25 20:43 61.28642 5.41604 19193 ft 182 kts 15°
2026-04-25 20:43 61.29735 5.42855 19199 ft 182 kts 14°
2026-04-25 20:43 61.30845 5.44122 19197 ft 182 kts 15°
2026-04-25 20:44 61.31959 5.45391 19193 ft 183 kts 15°
2026-04-25 20:44 61.33071 5.46664 19181 ft 181 kts 15°
2026-04-25 20:44 61.34174 5.47930 19195 ft 181 kts 15°
2026-04-25 20:44 61.35276 5.49199 19188 ft 181 kts 15°
2026-04-25 20:45 61.36380 5.50468 19196 ft 182 kts 15°
2026-04-25 20:45 61.37493 5.51742 19193 ft 183 kts 14°
2026-04-25 20:45 61.38609 5.53021 19187 ft 183 kts 15°
2026-04-25 20:45 61.39723 5.54303 19190 ft 183 kts 15°
2026-04-25 20:46 61.40840 5.55592 19187 ft 184 kts 15°
2026-04-25 20:46 61.41957 5.56881 19183 ft 183 kts 15°
2026-04-25 20:46 61.43071 5.58167 19202 ft 184 kts 14°
2026-04-25 20:46 61.44191 5.59459 19208 ft 185 kts 15°
2026-04-25 20:47 61.45313 5.60753 19200 ft 184 kts 15°
2026-04-25 20:47 61.46436 5.62048 19189 ft 184 kts 15°
2026-04-25 20:47 61.47178 5.62909 19188 ft 184 kts 15°
2026-04-25 20:47 61.48292 5.64206 19186 ft 182 kts 15°
2026-04-25 20:48 61.49393 5.65488 19175 ft 180 kts 15°
2026-04-25 20:48 61.50479 5.66755 19184 ft 177 kts 14°
2026-04-25 20:48 61.51553 5.68007 19198 ft 177 kts 14°
2026-04-25 20:48 61.52631 5.69253 19186 ft 177 kts 14°
2026-04-25 20:49 61.53708 5.70502 19194 ft 177 kts 14°
2026-04-25 20:49 61.54787 5.71756 19200 ft 177 kts 14°
2026-04-25 20:49 61.55871 5.73011 19195 ft 178 kts 14°
2026-04-25 20:49 61.56952 5.74270 19206 ft 178 kts 14°
2026-04-25 20:50 61.58038 5.75532 19197 ft 179 kts 15°
2026-04-25 20:50 61.59120 5.76799 19190 ft 177 kts 15°
2026-04-25 20:50 61.60190 5.78056 19204 ft 176 kts 14°
2026-04-25 20:50 61.61262 5.79306 19156 ft 178 kts 14°
2026-04-25 20:51 61.62345 5.80567 19200 ft 178 kts 14°
2026-04-25 20:51 61.63421 5.81819 19226 ft 180 kts 14°
2026-04-25 20:51 61.64538 5.83124 19211 ft 181 kts 14°
2026-04-25 20:51 61.65637 5.84419 19203 ft 181 kts 14°
2026-04-25 20:52 61.66723 5.85705 19210 ft 179 kts 14°
2026-04-25 20:52 61.67443 5.86555 19211 ft 179 kts 14°
2026-04-25 20:52 61.68896 5.88268 19218 ft 179 kts 14°
2026-04-25 20:52 61.69988 5.89546 19227 ft 181 kts 14°
2026-04-25 20:53 61.71091 5.90841 19208 ft 180 kts 14°
2026-04-25 20:53 61.72160 5.92046 19217 ft 171 kts
2026-04-25 20:53 61.73273 5.92413 19224 ft 158 kts 350°
2026-04-25 20:53 61.74415 5.92157 18898 ft 172 kts 349°
2026-04-25 20:54 61.75638 5.91923 18522 ft 180 kts 352°
2026-04-25 20:54 61.76885 5.91698 18055 ft 175 kts 349°
2026-04-25 20:54 61.78056 5.91488 17656 ft 164 kts 351°
2026-04-25 20:54 61.79185 5.91284 17261 ft 162 kts 350°
2026-04-25 20:55 61.80313 5.91054 16748 ft 162 kts 350°
2026-04-25 20:55 61.81425 5.90836 16363 ft 159 kts 350°
2026-04-25 20:55 61.82509 5.90645 16061 ft 155 kts 350°
2026-04-25 20:55 61.83580 5.90428 15676 ft 154 kts 349°
2026-04-25 20:56 61.84654 5.90195 15309 ft 155 kts 349°
2026-04-25 20:56 61.85744 5.89983 15026 ft 158 kts 350°
2026-04-25 20:56 61.86845 5.89778 14677 ft 159 kts 350°
2026-04-25 20:56 61.87931 5.89572 14309 ft 159 kts 351°
2026-04-25 20:57 61.89039 5.89355 13916 ft 158 kts 351°
2026-04-25 20:57 61.90142 5.89141 13556 ft 161 kts 351°
2026-04-25 20:57 61.91258 5.88920 13142 ft 161 kts 351°
2026-04-25 20:57 61.92365 5.88703 12741 ft 162 kts 351°
2026-04-25 20:58 61.93486 5.88484 12341 ft 162 kts 351°
2026-04-25 20:58 61.94612 5.88263 11954 ft 163 kts 352°
2026-04-25 20:58 61.95742 5.88044 11547 ft 162 kts 352°
2026-04-25 20:58 61.96869 5.87826 11184 ft 163 kts 352°
2026-04-25 20:59 61.97998 5.87602 10813 ft 164 kts 352°
2026-04-25 20:59 61.99140 5.87380 10470 ft 166 kts 353°
2026-04-25 20:59 62.00300 5.87149 10103 ft 168 kts 353°
2026-04-25 20:59 62.01477 5.86913 9695 ft 171 kts 353°
2026-04-25 21:00 62.02669 5.86678 9268 ft 172 kts 353°
2026-04-25 21:00 62.03459 5.86525 8982 ft 172 kts 353°
2026-04-25 21:00 62.06261 5.85977 7998 ft 174 kts 354°
2026-04-25 21:01 62.07474 5.85733 7625 ft 175 kts 354°
2026-04-25 21:01 62.08691 5.85496 7216 ft 175 kts 354°
2026-04-25 21:01 62.09891 5.85262 6850 ft 176 kts 354°
2026-04-25 21:01 62.11121 5.85020 6471 ft 179 kts 354°
2026-04-25 21:02 62.12370 5.84770 6045 ft 180 kts 355°
2026-04-25 21:02 62.13616 5.84525 5632 ft 180 kts 354°
2026-04-25 21:02 62.14864 5.84280 5275 ft 180 kts 355°
2026-04-25 21:02 62.16083 5.84037 5080 ft 169 kts 354°
2026-04-25 21:03 62.17213 5.83810 5059 ft 160 kts 354°
2026-04-25 21:03 62.18306 5.83592 5038 ft 155 kts 355°
2026-04-25 21:03 62.19360 5.83379 5028 ft 150 kts 354°
2026-04-25 21:03 62.20392 5.83174 5024 ft 148 kts 354°
2026-04-25 21:04 62.21402 5.82973 5019 ft 144 kts 354°
2026-04-25 21:04 62.22395 5.82776 5027 ft 143 kts 354°
2026-04-25 21:04 62.23379 5.82579 5029 ft 142 kts 354°
2026-04-25 21:04 62.24360 5.82383 5023 ft 141 kts 354°
2026-04-25 21:05 62.25337 5.82189 5025 ft 141 kts 354°
2026-04-25 21:05 62.26311 5.81991 5026 ft 141 kts 354°
2026-04-25 21:05 62.27282 5.81799 5026 ft 140 kts 354°
2026-04-25 21:05 62.28254 5.81606 5024 ft 140 kts 354°
2026-04-25 21:06 62.29224 5.81410 5009 ft 141 kts 354°
2026-04-25 21:06 62.30244 5.81186 4897 ft 145 kts 354°
2026-04-25 21:06 62.31225 5.81005 4970 ft 140 kts 355°
2026-04-25 21:06 62.31863 5.80889 4984 ft 139 kts 355°
2026-04-25 21:07 62.33146 5.80631 5011 ft 139 kts 354°
2026-04-25 21:07 62.34096 5.80437 5008 ft 139 kts 354°
2026-04-25 21:07 62.35060 5.80243 5014 ft 139 kts 354°
2026-04-25 21:07 62.36027 5.80026 5017 ft 140 kts 350°
2026-04-25 21:08 62.36947 5.79322 4966 ft 144 kts 333°
2026-04-25 21:08 62.37875 5.78303 4720 ft 155 kts 336°
2026-04-25 21:08 62.38872 5.77296 4442 ft 162 kts 336°
2026-04-25 21:08 62.39904 5.76253 4179 ft 165 kts 336°
2026-04-25 21:09 62.41821 5.74283 3635 ft 144 kts 336°
2026-04-25 21:09 62.42707 5.73364 3395 ft 138 kts 336°
2026-04-25 21:09 62.43551 5.72489 3196 ft 131 kts 336°
2026-04-25 21:10 62.44354 5.71653 3050 ft 124 kts 336°
2026-04-25 21:10 62.45090 5.70886 3027 ft 111 kts 336°
2026-04-25 21:10 62.45788 5.70480 3021 ft 100 kts 357°
2026-04-25 21:10 62.46448 5.70677 3022 ft 93 kts 14°
2026-04-25 21:11 62.47011 5.71283 3029 ft 88 kts 29°
2026-04-25 21:11 62.47428 5.72157 3019 ft 83 kts 46°
2026-04-25 21:11 62.47696 5.73194 3017 ft 75 kts 55°
2026-04-25 21:11 62.47962 5.74278 3044 ft 92 kts 53°
2026-04-25 21:12 62.48263 5.75635 3067 ft 108 kts 59°
2026-04-25 21:12 62.48582 5.77200 3081 ft 119 kts 58°
2026-04-25 21:12 62.48950 5.78852 3058 ft 125 kts 58°
2026-04-25 21:12 62.49205 5.79978 3040 ft 127 kts 58°
2026-04-25 21:13 62.49715 5.82258 3020 ft 123 kts 58°
2026-04-25 21:13 62.50071 5.83858 3017 ft 113 kts 57°
2026-04-25 21:13 62.50395 5.85325 2944 ft 105 kts 57°
2026-04-25 21:13 62.50696 5.86692 2785 ft 97 kts 57°
2026-04-25 21:14 62.50984 5.87989 2636 ft 94 kts 57°
2026-04-25 21:14 62.51265 5.89256 2478 ft 92 kts 57°
2026-04-25 21:14 62.51539 5.90504 2324 ft 91 kts 57°
2026-04-25 21:14 62.51807 5.91728 2185 ft 91 kts 58°
2026-04-25 21:15 62.52082 5.92974 2040 ft 93 kts 56°
2026-04-25 21:15 62.52365 5.94251 1891 ft 95 kts 58°
2026-04-25 21:15 62.52649 5.95556 1732 ft 96 kts 58°
2026-04-25 21:15 62.52937 5.96872 1567 ft 97 kts 57°
2026-04-25 21:16 62.53229 5.98202 1414 ft 98 kts 57°
2026-04-25 21:16 62.53526 5.99548 1237 ft 100 kts 57°
2026-04-25 21:16 62.53820 6.00895 1060 ft 98 kts 58°
2026-04-25 21:16 62.54113 6.02227 893 ft 99 kts 59°
2026-04-25 21:17 62.54409 6.03574 735 ft 99 kts 58°
2026-04-25 21:17 62.54704 6.04930 580 ft 100 kts 59°
2026-04-25 21:17 62.54995 6.06290 396 ft 99 kts 62°
2026-04-25 21:17 62.55315 6.07596 239 ft 95 kts 63°
2026-04-25 21:18 62.55573 6.08890 98 ft 92 kts 58°
2026-04-25 21:18 62.55836 6.10074 42 ft 76 kts 64°
2026-04-25 21:18 62.55947 6.10600 44 ft 10 kts 83°
2026-04-25 21:18 62.55927 6.10823 46 ft 16 kts 111°
2026-04-25 21:19 62.55901 6.11035 46 ft 10 kts 97°
2026-04-25 21:19 62.55876 6.11095 46 ft 9 kts 171°
2026-04-25 21:19 62.55858 6.11049 46 ft 9 kts 294°
2026-04-25 21:19 62.55836 6.10994 45 ft 3 kts 111°
2026-04-25 21:20 62.55835 6.11002 45 ft 0 kts 88°